QPF
0.00 0.00 0.00 0.00 0.00 0.00 0.00 0.00 0.00 0.00 0.00 0.00 0.00 0.00 0.00 0.04 0.08 0.09 0.05 0.03 0.01 0.00 0.00 0.00 0.00 0.00 0.00 0.00 0.00 0.00 0.00 0.00 0.00 0.00 0.00 0.00 0.00 0.00 0.00 0.00 0.00 0.00 0.00
0.00 0.00 0.00 0.00 0.00 0.00 0.00 0.00 0.00 0.00 0.00 0.00 0.00 0.00 0.00 0.05 0.08 0.06 0.03 0.04 0.01 0.00 0.00 0.00 0.00 0.00 0.00 0.00 0.00 0.00 0.00 0.00 0.00 0.00 0.00 0.00 0.00 0.00 0.00 0.00 0.00 0.00 0.00
0.00 0.00 0.00 0.00 0.00 0.00 0.00 0.00 0.00 0.00 0.00 0.00 0.00 0.00 0.00 0.02 0.02 0.01 0.01 0.02 0.01 0.00 0.00 0.00 0.00 0.00 0.00 0.00 0.00 0.00 0.00 0.00 0.00 0.00 0.00 0.00 0.00 0.00 0.00 0.00 0.00 0.00 0.00
0.00 0.00 0.00 0.00 0.00 0.00 0.00 0.00 0.00 0.00 0.00 0.00 0.00 0.00 0.00 0.02 0.02 0.01 0.02 0.02 0.01 0.00 0.00 0.00 0.00 0.00 0.00 0.00 0.00 0.00 0.00 0.00 0.00 0.00 0.00 0.00 0.00 0.00 0.00 0.00 0.00 0.00 0.00
0.00 0.00 0.00 0.00 0.00 0.00 0.00 0.00 0.00 0.00 0.00 0.00 0.00 0.00 0.00 0.01 0.03 0.02 0.01 0.01 0.00 0.00 0.00 0.00 0.00 0.00 0.00 0.00 0.00 0.00 0.00 0.00 0.00 0.00 0.00 0.00 0.00 0.00 0.00 0.00 0.00 0.00 0.00
0.00 0.00 0.00 0.00 0.00 0.00 0.00 0.00 0.00 0.00 0.00 0.00 0.00 0.00 0.00 0.03 0.04 0.01 0.01 0.01 0.01 0.00 0.00 0.00 0.00 0.00 0.00 0.00 0.00 0.00 0.00 0.00 0.00 0.00 0.00 0.00 0.00 0.00 0.00 0.00 0.00 0.00 0.00
0.00 0.00 0.00 0.00 0.00 0.00 0.00 0.00 0.00 0.00 0.00 0.00 0.00 0.00 0.00 0.01 0.02 0.01 0.00 0.00 0.00 0.00 0.00 0.00 0.00 0.00 0.00 0.00 0.00 0.00 0.00 0.00 0.00 0.00 0.00 0.00 0.00 0.00 0.00 0.00 0.00 0.00 0.00
0.00 0.00 0.00 0.00 0.00 0.00 0.00 0.00 0.00 0.00 0.00 0.00 0.00 0.00 0.00 0.00 0.00 0.00 0.00 0.00 0.00 0.00 0.00 0.00 0.00 0.00 0.00 0.00 0.00 0.00 0.00 0.00 0.00 0.00 0.00 0.00 0.00 0.00 0.00 0.00 0.00 0.00 0.00
0.00 0.00 0.00 0.00 0.00 0.00 0.00 0.00 0.00 0.00 0.00 0.00 0.00 0.00 0.00 0.00 0.00 0.00 0.00 0.00 0.00 0.00 0.00 0.00 0.00 0.00 0.00 0.00 0.00 0.00 0.00 0.00 0.00 0.00 0.00 0.00 0.00 0.00 0.00 0.00 0.00 0.00 0.00
0.00 0.00 0.00 0.00 0.00 0.00 0.00 0.00 0.00 0.00 0.00 0.00 0.00 0.00 0.00 0.00 0.00 0.00 0.00 0.00 0.00 0.00 0.00 0.00 0.00 0.00 0.00 0.00 0.00 0.00 0.00 0.00 0.00 0.00 0.00 0.00 0.00 0.00 0.00 0.00 0.00 0.00 0.00
0.00 0.00 0.00 0.00 0.00 0.00 0.00 0.00 0.00 0.00 0.00 0.00 0.00 0.00 0.00 0.00 0.00 0.00 0.00 0.00 0.00 0.00 0.00 0.00 0.00 0.00 0.00 0.00 0.00 0.00 0.00 0.00 0.00 0.00 0.00 0.00 0.00 0.00 0.00 0.00 0.00 0.00 0.00
0.00 0.00 0.00 0.00 0.00 0.00 0.00 0.00 0.00 0.00 0.00 0.00 0.00 0.00 0.00 0.00 0.00 0.00 0.00 0.00 0.00 0.00 0.00 0.00 0.00 0.00 0.00 0.00 0.00 0.00 0.00 0.00 0.00 0.00 0.00 0.00 0.00 0.00 0.00 0.00 0.00 0.00 0.00
0.00 0.00 0.00 0.00 0.00 0.00 0.00 0.00 0.00 0.00 0.00 0.00 0.00 0.00 0.00 0.00 0.00 0.00 0.00 0.00 0.00 0.00 0.00 0.00 0.00 0.00 0.00 0.00 0.00 0.00 0.00 0.00 0.00 0.00 0.00 0.00 0.00 0.00 0.00 0.00 0.00 0.00 0.00
0.00 0.00 0.00 0.00 0.00 0.00 0.00 0.00 0.00 0.00 0.00 0.00 0.00 0.00 0.00 0.00 0.00 0.00 0.00 0.00 0.00 0.00 0.00 0.00 0.00 0.00 0.00 0.00 0.00 0.00 0.00 0.00 0.00 0.00 0.00 0.00 0.00 0.00 0.00 0.00 0.00 0.00 0.00
0.00 0.00 0.00 0.00 0.00 0.00 0.00 0.00 0.00 0.00 0.00 0.00 0.00 0.00 0.00 0.00 0.00 0.00 0.00 0.00 0.00 0.00 0.00 0.00 0.00 0.00 0.00 0.00 0.00 0.00 0.00 0.00 0.00 0.00 0.00 0.00 0.00 0.00 0.00 0.00 0.00 0.00 0.00
0.00 0.00 0.00 0.00 0.00 0.00 0.00 0.00 0.00 0.00 0.00 0.00 0.00 0.00 0.00 0.00 0.00 0.00 0.00 0.00 0.00 0.00 0.00 0.00 0.00 0.00 0.00 0.00 0.00 0.00 0.00 0.00 0.00 0.00 0.00 0.00 0.00 0.00 0.00 0.00 0.00 0.00 0.01
0.00 0.00 0.00 0.00 0.00 0.00 0.00 0.00 0.00 0.00 0.00 0.00 0.00 0.00 0.00 0.00 0.00 0.00 0.00 0.00 0.00 0.00 0.00 0.00 0.00 0.00 0.00 0.00 0.00 0.00 0.00 0.00 0.00 0.00 0.00 0.00 0.00 0.00 0.00 0.00 0.00 0.01 0.02
0.00 0.00 0.00 0.00 0.00 0.00 0.00 0.00 0.00 0.00 0.00 0.00 0.00 0.00 0.00 0.00 0.00 0.00 0.00 0.00 0.00 0.00 0.00 0.00 0.00 0.00 0.00 0.00 0.00 0.00 0.00 0.00 0.00 0.00 0.00 0.00 0.00 0.00 0.00 0.00 0.01 0.01 0.00
0.00 0.00 0.00 0.00 0.00 0.00 0.00 0.00 0.00 0.00 0.00 0.00 0.00 0.00 0.00 0.00 0.00 0.00 0.00 0.00 0.00 0.00 0.00 0.00 0.00 0.00 0.00 0.00 0.00 0.00 0.00 0.00 0.00 0.00 0.00 0.00 0.00 0.00 0.00 0.01 0.01 0.00 0.00
0.00 0.00 0.00 0.00 0.00 0.00 0.00 0.00 0.00 0.00 0.00 0.00 0.00 0.00 0.00 0.00 0.00 0.00 0.00 0.00 0.00 0.00 0.00 0.00 0.00 0.00 0.00 0.00 0.00 0.00 0.00 0.00 0.00 0.00 0.00 0.00 0.00 0.00 0.01 0.01 0.00 0.00 0.00
0.00 0.00 0.00 0.00 0.00 0.00 0.00 0.00 0.00 0.00 0.00 0.00 0.00 0.00 0.00 0.00 0.00 0.00 0.00 0.00 0.00 0.00 0.00 0.00 0.00 0.00 0.00 0.00 0.00 0.00 0.00 0.00 0.00 0.00 0.00 0.00 0.00 0.00 0.00 0.00 0.00 0.00 0.00
0.00 0.01 0.00 0.00 0.00 0.00 0.00 0.00 0.00 0.00 0.00 0.00 0.00 0.00 0.00 0.00 0.00 0.00 0.00 0.00 0.00 0.00 0.00 0.00 0.00 0.00 0.00 0.00 0.00 0.00 0.00 0.00 0.00 0.00 0.00 0.00 0.00 0.00 0.00 0.00 0.00 0.00 0.00
0.00 0.00 0.00 0.00 0.00 0.00 0.00 0.00 0.00 0.00 0.00 0.00 0.00 0.00 0.00 0.00 0.00 0.00 0.00 0.00 0.00 0.00 0.00 0.00 0.00 0.00 0.00 0.00 0.00 0.00 0.00 0.00 0.00 0.00 0.00 0.00 0.00 0.00 0.00 0.00 0.00 0.00 0.00
0.00 0.00 0.00 0.00 0.00 0.00 0.00 0.00 0.00 0.00 0.00 0.00 0.00 0.00 0.00 0.00 0.00 0.00 0.00 0.00 0.00 0.00 0.00 0.00 0.00 0.00 0.00 0.00 0.00 0.00 0.00 0.00 0.00 0.00 0.00 0.00 0.00 0.00 0.00 0.00 0.00 0.00 0.00
0.00 0.00 0.00 0.00 0.00 0.00 0.00 0.00 0.00 0.00 0.00 0.00 0.00 0.00 0.00 0.00 0.00 0.00 0.00 0.00 0.00 0.00 0.00 0.00 0.00 0.00 0.00 0.00 0.00 0.00 0.00 0.00 0.00 0.00 0.00 0.00 0.00 0.00 0.00 0.00 0.00 0.00 0.00
0.00 0.00 0.00 0.00 0.00 0.00 0.00 0.00 0.00 0.00 0.00 0.00 0.00 0.00 0.00 0.00 0.00 0.00 0.00 0.00 0.00 0.00 0.00 0.00 0.00 0.00 0.00 0.00 0.00 0.00 0.00 0.00 0.00 0.00 0.00 0.00 0.00 0.00 0.00 0.00 0.00 0.00 0.00
MSLP
1005.20 1005.37 1005.30 1005.44 1005.60 1005.78 1005.97 1006.18 1006.48 1007.05 1007.81 1008.24 1008.71 1009.14 1009.89 1011.12 1011.78 1012.55 1013.07 1013.79 1014.30 1015.01 1015.76 1016.01 1016.41 1016.77 1017.02 1017.30 1017.32 1017.49 1017.48 1017.67 1017.56 1016.84 1016.34 1016.43 1016.66 1016.77 1016.86 1016.92 1016.89 1017.18 1017.27
1004.08 1004.10 1004.33 1004.41 1004.60 1004.95 1005.30 1005.70 1006.08 1006.41 1007.21 1007.96 1008.60 1009.31 1010.49 1012.00 1012.48 1013.06 1013.93 1014.36 1014.78 1015.26 1015.77 1016.41 1016.64 1016.90 1017.30 1017.49 1017.52 1017.63 1017.76 1017.99 1018.07 1017.70 1017.31 1016.39 1016.36 1016.63 1016.75 1016.73 1016.98 1016.96 1017.04
1002.82 1002.89 1002.82 1003.17 1003.74 1004.18 1004.48 1005.05 1005.51 1006.08 1006.76 1007.72 1008.58 1010.10 1011.40 1012.31 1012.97 1013.76 1014.36 1015.09 1015.16 1015.50 1015.84 1016.49 1016.79 1017.09 1017.42 1017.71 1017.93 1018.17 1018.12 1018.09 1018.43 1018.56 1018.02 1017.25 1016.83 1017.02 1016.38 1016.57 1016.86 1016.93 1017.07
1001.96 1002.03 1002.02 1002.05 1002.50 1003.19 1004.02 1004.53 1005.17 1005.78 1006.62 1007.56 1008.69 1009.55 1009.73 1010.94 1012.55 1013.57 1014.75 1015.61 1015.87 1015.98 1016.42 1016.77 1016.93 1017.34 1017.71 1017.96 1018.29 1018.55 1018.56 1018.53 1018.57 1018.73 1018.72 1018.91 1018.61 1017.74 1016.71 1016.64 1016.68 1017.07 1017.16
1001.39 1001.39 1001.58 1001.67 1001.90 1002.62 1003.27 1004.22 1004.94 1005.61 1006.54 1007.23 1007.72 1008.88 1009.91 1011.14 1012.66 1014.18 1015.11 1015.82 1016.39 1016.64 1016.79 1017.01 1017.39 1017.66 1017.96 1018.29 1018.60 1018.77 1018.95 1019.15 1019.08 1018.92 1018.94 1018.98 1018.77 1018.69 1018.38 1017.02 1016.52 1016.80 1016.75
1000.87 1001.04 1001.03 1001.46 1001.49 1002.06 1003.00 1003.82 1004.71 1005.48 1006.24 1006.64 1007.41 1008.09 1009.64 1011.19 1012.64 1014.22 1015.20 1015.98 1016.65 1016.73 1017.08 1017.22 1017.69 1017.97 1018.38 1018.64 1018.91 1019.15 1019.38 1019.47 1019.44 1019.42 1019.44 1019.23 1018.98 1018.56 1018.56 1017.87 1017.25 1016.89 1016.49
1000.32 1000.44 1000.47 1000.76 1000.98 1001.48 1002.57 1003.40 1004.30 1005.22 1006.05 1006.47 1007.11 1008.13 1009.86 1011.37 1012.34 1013.74 1014.74 1015.58 1016.26 1016.98 1017.05 1017.40 1017.82 1018.22 1018.67 1018.91 1019.09 1019.50 1019.78 1019.69 1019.54 1019.63 1019.46 1019.50 1019.25 1019.17 1018.98 1018.52 1017.61 1016.94 1016.57
999.58 999.70 999.94 1000.19 1000.50 1001.06 1002.03 1002.95 1003.96 1005.04 1005.95 1006.58 1007.45 1008.58 1009.99 1011.38 1012.67 1013.72 1014.84 1015.60 1016.25 1016.63 1017.16 1017.59 1018.03 1018.47 1018.84 1019.09 1019.30 1019.72 1019.78 1019.81 1019.71 1019.72 1019.64 1019.52 1019.29 1019.20 1019.08 1018.80 1018.26 1016.84 1016.02
999.16 999.02 999.25 999.69 1000.02 1000.71 1001.51 1002.51 1003.74 1005.00 1005.93 1006.72 1007.71 1009.03 1010.60 1011.79 1012.75 1014.02 1014.97 1015.73 1016.46 1016.81 1017.38 1017.95 1018.31 1018.77 1019.04 1019.08 1019.58 1019.71 1019.69 1019.74 1019.71 1019.63 1019.61 1019.51 1019.29 1019.16 1018.99 1018.78 1018.42 1017.72 1015.86
999.35 998.75 998.75 999.37 999.89 1000.35 1001.40 1002.70 1003.93 1005.13 1006.11 1007.16 1008.03 1009.51 1011.14 1012.10 1013.14 1014.02 1015.04 1015.76 1016.38 1016.98 1017.61 1018.11 1018.61 1019.05 1019.14 1019.37 1019.57 1019.59 1019.71 1019.66 1019.57 1019.67 1019.57 1019.32 1019.08 1018.92 1018.72 1018.48 1018.17 1017.73 1016.90
999.84 998.92 998.90 999.39 1000.07 1000.69 1001.58 1002.98 1004.35 1005.72 1006.79 1007.81 1008.84 1009.94 1011.36 1012.45 1013.40 1014.36 1015.08 1015.85 1016.50 1017.19 1017.70 1018.29 1018.80 1019.08 1019.30 1019.48 1019.44 1019.50 1019.60 1019.58 1019.58 1019.52 1019.39 1019.21 1019.04 1018.76 1018.42 1018.11 1017.80 1017.36 1016.89
1000.33 999.65 999.85 1000.15 1000.65 1001.45 1002.28 1003.30 1004.91 1006.25 1007.38 1008.56 1009.37 1010.51 1011.59 1012.76 1013.71 1014.61 1015.35 1016.12 1016.74 1017.37 1017.94 1018.51 1018.96 1019.22 1019.42 1019.54 1019.44 1019.42 1019.47 1019.47 1019.33 1019.27 1019.18 1018.90 1018.69 1018.46 1018.14 1017.80 1017.40 1017.01 1016.64
1000.77 1000.64 1001.28 1001.49 1001.64 1002.35 1003.19 1004.19 1005.62 1007.11 1008.16 1009.02 1009.90 1011.08 1012.16 1013.11 1014.05 1015.00 1015.77 1016.49 1017.07 1017.67 1018.23 1018.70 1019.08 1019.32 1019.56 1019.56 1019.45 1019.44 1019.36 1019.26 1019.14 1019.03 1018.88 1018.63 1018.44 1018.06 1017.73 1017.57 1017.09 1016.60 1016.12
1001.14 1001.43 1002.00 1002.29 1002.58 1003.47 1004.32 1005.39 1006.85 1007.91 1008.76 1009.64 1010.63 1011.50 1012.65 1013.65 1014.57 1015.47 1016.23 1016.87 1017.42 1017.92 1018.44 1018.90 1019.30 1019.51 1019.56 1019.54 1019.50 1019.38 1019.19 1018.97 1018.85 1018.76 1018.65 1018.45 1018.21 1017.84 1017.53 1017.12 1016.62 1016.06 1015.58
1001.46 1002.26 1002.75 1003.22 1003.76 1004.54 1005.54 1006.64 1007.65 1008.70 1009.52 1010.43 1011.43 1012.28 1013.34 1014.46 1015.27 1016.01 1016.71 1017.28 1017.76 1018.28 1018.74 1019.11 1019.39 1019.49 1019.47 1019.46 1019.46 1019.18 1018.89 1018.72 1018.53 1018.35 1018.19 1017.97 1017.80 1017.78 1017.49 1017.01 1016.38 1015.85 1015.27
1001.92 1002.87 1003.64 1004.38 1004.77 1005.43 1006.21 1007.30 1008.38 1009.42 1010.29 1011.13 1012.10 1013.07 1014.05 1015.00 1015.86 1016.55 1017.13 1017.66 1018.22 1018.63 1018.93 1019.18 1019.33 1019.34 1019.49 1019.69 1019.56 1019.32 1018.83 1018.48 1018.26 1017.92 1017.70 1017.46 1017.27 1017.01 1016.85 1016.48 1016.12 1015.78 1014.98
1002.20 1003.28 1004.27 1004.94 1005.46 1006.13 1006.81 1007.90 1008.94 1010.00 1010.93 1011.80 1012.82 1013.66 1014.59 1015.51 1016.31 1016.97 1017.50 1018.03 1018.49 1018.75 1018.94 1019.08 1019.28 1019.35 1019.42 1019.60 1019.43 1019.23 1018.78 1018.30 1018.04 1017.75 1017.39 1017.05 1016.78 1016.55 1016.16 1015.82 1015.35 1014.71 1014.18
1002.50 1003.70 1004.77 1005.43 1006.09 1006.87 1007.83 1008.52 1009.67 1010.51 1011.52 1012.63 1013.38 1014.26 1015.16 1016.01 1016.79 1017.32 1017.91 1018.46 1018.65 1018.74 1018.84 1019.11 1019.32 1019.35 1019.27 1019.53 1019.37 1019.06 1018.46 1018.01 1017.73 1017.44 1017.10 1016.75 1016.34 1015.99 1015.60 1014.99 1014.41 1013.99 1013.17
1002.88 1004.02 1005.06 1005.82 1006.62 1007.41 1008.34 1009.15 1010.34 1011.44 1012.42 1013.24 1014.03 1014.89 1015.62 1016.40 1017.12 1017.78 1018.32 1018.62 1018.67 1018.80 1019.03 1019.24 1019.26 1019.18 1019.12 1019.34 1019.16 1018.80 1018.12 1017.57 1017.25 1016.91 1016.52 1016.21 1015.88 1015.53 1015.17 1014.42 1013.76 1012.81 1012.06
1003.70 1004.66 1005.69 1006.50 1007.30 1008.43 1009.21 1009.96 1011.02 1012.14 1013.12 1013.92 1014.66 1015.40 1016.09 1016.82 1017.65 1018.31 1018.50 1018.83 1018.92 1019.06 1019.17 1019.13 1019.13 1019.22 1018.97 1018.94 1018.85 1018.55 1017.87 1017.23 1016.72 1016.33 1015.83 1015.55 1015.31 1014.95 1014.54 1013.98 1013.13 1012.28 1011.56
1004.80 1005.67 1006.42 1007.14 1008.10 1009.04 1009.89 1010.77 1011.80 1012.90 1013.81 1014.55 1015.36 1016.18 1016.98 1017.72 1018.18 1018.52 1018.78 1018.97 1019.04 1019.06 1019.03 1018.98 1018.79 1018.77 1018.77 1018.63 1018.59 1018.33 1017.79 1017.09 1016.48 1015.89 1015.35 1014.98 1014.76 1014.36 1013.85 1013.52 1012.90 1012.22 1011.66
1005.85 1006.58 1007.33 1008.36 1009.29 1009.94 1010.52 1011.75 1012.94 1013.94 1014.61 1015.37 1016.29 1017.15 1017.76 1018.16 1018.39 1018.64 1018.94 1019.06 1019.10 1019.03 1018.84 1018.65 1018.33 1018.28 1018.34 1018.35 1018.28 1018.04 1017.61 1017.10 1016.41 1015.75 1015.22 1014.80 1014.39 1013.95 1013.50 1013.05 1012.53 1011.95 1011.28
1007.09 1007.44 1007.93 1009.00 1010.09 1011.00 1011.72 1012.52 1013.89 1014.54 1015.37 1016.22 1017.00 1017.57 1018.01 1018.37 1018.64 1018.71 1018.95 1019.02 1019.12 1018.97 1018.80 1018.59 1018.33 1018.09 1018.04 1017.87 1017.77 1017.50 1017.03 1016.58 1016.13 1015.79 1015.14 1014.45 1014.04 1013.66 1013.10 1012.65 1012.24 1011.71 1011.02
1008.07 1008.57 1009.22 1010.01 1011.08 1012.02 1012.69 1013.52 1014.63 1015.37 1016.01 1016.74 1017.38 1017.80 1018.14 1018.55 1018.86 1019.09 1019.19 1019.09 1019.07 1019.00 1018.88 1018.60 1018.35 1018.06 1017.81 1017.60 1017.46 1017.13 1016.65 1016.14 1015.74 1015.27 1014.64 1014.18 1013.83 1013.39 1012.92 1012.24 1011.72 1011.29 1010.81
1008.91 1009.46 1010.13 1010.87 1011.99 1012.91 1013.85 1014.74 1015.41 1015.94 1016.50 1017.06 1017.61 1018.06 1018.46 1018.74 1019.00 1019.22 1019.25 1019.16 1019.24 1019.39 1019.12 1018.77 1018.51 1018.17 1017.85 1017.66 1017.64 1017.17 1016.55 1015.96 1015.58 1014.99 1014.48 1013.94 1013.53 1013.05 1012.54 1012.03 1011.57 1011.01 1010.42
1009.74 1010.50 1011.30 1012.02 1012.99 1013.87 1014.78 1015.60 1016.04 1016.35 1016.72 1017.37 1017.95 1018.37 1018.73 1018.99 1019.18 1019.23 1019.18 1019.53 1019.53 1019.45 1019.30 1019.08 1018.86 1018.41 1018.10 1017.82 1017.48 1017.00 1016.33 1015.89 1015.45 1015.11 1014.50 1014.02 1013.62 1013.11 1012.57 1012.02 1011.37 1010.83 1010.19
Thickness
5673 5676 5681 5686 5687 5689 5690 5692 5692 5691 5686 5682 5680 5678 5673 5665 5660 5654 5650 5645 5642 5636 5631 5627 5623 5619 5617 5614 5613 5610 5608 5604 5603 5606 5607 5603 5598 5593 5589 5584 5581 5575 5572
5668 5674 5677 5682 5686 5687 5687 5688 5688 5688 5683 5679 5675 5672 5664 5651 5647 5644 5638 5635 5632 5628 5625 5617 5615 5612 5607 5605 5604 5601 5598 5594 5590 5591 5591 5596 5593 5585 5580 5575 5569 5566 5561
5667 5671 5677 5680 5682 5682 5685 5684 5685 5682 5678 5673 5669 5658 5648 5642 5637 5632 5628 5623 5621 5618 5616 5609 5606 5603 5599 5596 5592 5589 5587 5586 5579 5575 5578 5584 5584 5574 5575 5568 5560 5554 5548
5660 5664 5669 5676 5680 5681 5680 5679 5680 5677 5672 5666 5658 5653 5656 5647 5635 5627 5617 5611 5609 5607 5603 5599 5597 5593 5589 5586 5581 5577 5574 5572 5570 5566 5560 5554 5553 5559 5566 5561 5554 5544 5537
5649 5653 5658 5666 5673 5674 5674 5671 5671 5669 5664 5661 5659 5652 5647 5640 5626 5614 5607 5602 5598 5595 5592 5590 5585 5582 5578 5575 5570 5566 5562 5558 5555 5553 5549 5544 5542 5537 5534 5543 5544 5535 5529
5637 5643 5650 5654 5662 5666 5665 5664 5663 5661 5659 5658 5655 5652 5642 5629 5618 5606 5598 5593 5587 5587 5582 5580 5575 5572 5567 5563 5559 5553 5549 5545 5541 5537 5533 5531 5528 5527 5520 5521 5521 5519 5519
5626 5632 5641 5646 5655 5660 5659 5659 5658 5654 5652 5652 5650 5644 5631 5621 5613 5603 5595 5589 5583 5576 5575 5570 5566 5561 5556 5552 5547 5540 5535 5532 5530 5524 5522 5516 5512 5508 5503 5500 5504 5503 5501
5617 5626 5633 5638 5647 5653 5654 5653 5651 5647 5645 5644 5639 5633 5624 5614 5604 5597 5588 5582 5576 5572 5566 5561 5555 5550 5545 5540 5535 5528 5524 5520 5517 5512 5507 5502 5499 5494 5488 5484 5482 5488 5489
5608 5620 5628 5634 5640 5644 5648 5648 5644 5639 5636 5634 5629 5621 5611 5603 5596 5587 5580 5574 5566 5562 5556 5549 5544 5538 5533 5530 5523 5518 5514 5509 5505 5500 5495 5490 5485 5480 5475 5469 5465 5462 5472
5594 5608 5621 5625 5631 5638 5638 5637 5634 5629 5626 5622 5619 5610 5598 5592 5585 5579 5572 5565 5559 5553 5546 5539 5532 5526 5522 5518 5512 5508 5503 5498 5494 5488 5482 5478 5474 5468 5462 5456 5450 5446 5444
5575 5594 5607 5615 5620 5626 5629 5627 5622 5616 5612 5609 5605 5599 5590 5583 5576 5569 5564 5557 5550 5543 5537 5529 5522 5516 5512 5507 5504 5499 5493 5487 5482 5476 5471 5465 5460 5454 5448 5442 5436 5431 5425
5558 5577 5588 5599 5607 5612 5617 5617 5610 5604 5601 5594 5593 5587 5581 5574 5567 5560 5554 5547 5540 5533 5526 5518 5511 5507 5502 5497 5493 5488 5483 5477 5471 5465 5458 5453 5447 5440 5433 5427 5422 5415 5408
5545 5558 5566 5579 5593 5600 5603 5603 5597 5589 5587 5585 5581 5576 5570 5564 5557 5550 5543 5536 5529 5522 5515 5508 5502 5497 5491 5486 5482 5477 5472 5466 5459 5453 5446 5440 5432 5426 5420 5412 5406 5400 5393
5539 5549 5559 5571 5583 5586 5587 5585 5579 5576 5576 5574 5570 5567 5560 5553 5546 5538 5531 5525 5518 5512 5505 5498 5491 5486 5481 5476 5471 5466 5461 5455 5448 5440 5432 5425 5418 5412 5405 5398 5391 5383 5374
5536 5541 5553 5564 5569 5571 5570 5568 5567 5566 5565 5562 5558 5555 5547 5539 5532 5526 5520 5513 5507 5501 5494 5488 5482 5476 5471 5466 5460 5456 5451 5443 5436 5428 5421 5414 5406 5396 5387 5380 5372 5361 5351
5536 5540 5546 5551 5557 5560 5561 5560 5558 5556 5554 5551 5546 5541 5534 5527 5520 5514 5508 5503 5496 5490 5484 5479 5473 5468 5461 5452 5447 5441 5437 5431 5424 5418 5410 5403 5395 5386 5375 5364 5351 5337 5325
5542 5543 5543 5547 5551 5554 5556 5553 5552 5548 5545 5543 5537 5531 5524 5517 5509 5503 5498 5492 5486 5481 5476 5470 5463 5457 5450 5441 5435 5429 5424 5419 5412 5405 5397 5390 5381 5372 5361 5349 5336 5323 5306
5550 5546 5542 5545 5547 5548 5547 5548 5545 5544 5539 5531 5527 5521 5513 5505 5499 5494 5487 5480 5476 5472 5467 5459 5451 5445 5439 5429 5423 5417 5414 5408 5400 5392 5384 5375 5366 5354 5343 5335 5322 5306 5292
5556 5549 5546 5546 5548 5547 5545 5544 5538 5531 5526 5521 5516 5509 5503 5496 5490 5483 5475 5470 5467 5462 5455 5447 5441 5435 5428 5418 5411 5406 5403 5398 5391 5382 5372 5361 5350 5338 5324 5314 5302 5294 5282
5555 5551 5547 5546 5544 5538 5536 5534 5528 5522 5516 5511 5506 5499 5493 5486 5478 5469 5466 5460 5455 5449 5443 5437 5431 5423 5417 5410 5402 5395 5391 5388 5382 5372 5360 5347 5334 5319 5304 5292 5286 5283 5277
5548 5545 5543 5541 5536 5533 5530 5526 5520 5513 5506 5500 5493 5486 5479 5471 5465 5461 5455 5449 5444 5439 5433 5428 5422 5415 5408 5401 5392 5385 5379 5373 5366 5357 5345 5332 5316 5302 5288 5277 5272 5270 5269
5539 5536 5532 5528 5526 5524 5521 5512 5504 5497 5493 5488 5480 5472 5466 5461 5457 5451 5445 5440 5434 5430 5425 5419 5414 5407 5398 5390 5382 5373 5364 5355 5347 5337 5325 5311 5297 5283 5275 5269 5266 5264 5262
5534 5532 5531 5524 5519 5514 5509 5502 5493 5489 5483 5476 5469 5463 5458 5452 5447 5443 5436 5432 5424 5420 5415 5409 5404 5398 5390 5382 5373 5363 5354 5343 5331 5317 5303 5290 5278 5270 5266 5263 5260 5257 5256
5528 5526 5523 5518 5509 5502 5497 5492 5485 5480 5474 5468 5461 5456 5450 5443 5437 5430 5425 5420 5415 5410 5404 5400 5393 5387 5380 5372 5362 5353 5342 5331 5316 5301 5286 5275 5267 5263 5261 5260 5257 5253 5249
5521 5519 5515 5511 5501 5494 5487 5481 5476 5472 5467 5461 5454 5447 5440 5434 5427 5420 5415 5410 5403 5396 5392 5387 5381 5375 5367 5358 5345 5334 5323 5311 5296 5282 5273 5267 5262 5260 5258 5255 5250 5247 5243
5513 5508 5503 5499 5491 5485 5478 5471 5467 5463 5459 5451 5443 5437 5429 5423 5416 5411 5407 5396 5390 5385 5379 5372 5364 5358 5349 5339 5328 5316 5303 5290 5277 5268 5264 5261 5258 5256 5253 5248 5244 5241 5237